Regional Weather Roundup
Issued by NWS Sterling, VA

Home | Current Version | Previous Version | Text Only | Print | Product List | Glossary Off
Versions: 1 2 3 4 5 6 7 8 9 10 11 12 13 14 15 16 17 18 19 20 21 22 23 24 25 26 27 28 29 30 31 32 33 34 35 36 37 38 39 40 41 42 43 44 45 46 47 48 49 50

000
ASUS41 KLWX 280210
RWRLWX

REGIONAL WEATHER ROUNDUP
NATIONAL WEATHER SERVICE BALTIMORE MD/WASHINGTON DC
1000 PM EDT MON APR 27 2015

Note: "FAIR" indicates few or no clouds below 12,000 feet
with no significant weather and/or obstructions to visibility.
 TC=TEMPERATURE CELSIUS

 * =Non NWS site. Station does not report precipitation (e.g. rain,
    snow, etc.), thunder, or fog.

DCZ001-MDZ009-015-VAZ040>042-051-053>054-280300-
WASHINGTON METRO

CITY           SKY/WX    TMP DP  RH WIND       PRES   REMARKS
WASHINGTON NAT CLOUDY    54  39  57 NW9       29.88R
DULLES         LGT RAIN  51  36  56 NW14      29.89R
ANDREWS AFB    PTCLDY    52  38  58 NW10      29.86R
FT BELVOIR     CLOUDY    53  37  53 NW10      29.88R
QUANTICO       PTCLDY    53  35  50 NW17G26   29.90R
COLLEGE PARK*  PTCLDY    52  37  58 NW6       29.86S
LEESBURG*      CLOUDY    52  39  62 NW16      29.90R
GAITHERSBURG*  CLOUDY    48  36  61 NW12      29.90S

$$

MDZ006>007-011-014-280300-
BALTIMORE METRO

CITY           SKY/WX    TMP DP  RH WIND       PRES   REMARKS
BWI AIRPORT    PTCLDY    49  37  63 NW8       29.84R
MD SCIENCE CTR   N/A     52  37  56 MISG      29.85R
MARTIN STATE   CLEAR     52  37  58 W10       29.84S
ANNAPOLIS      PTCLDY    53  36  52 NW10G22   29.84R
FORT MEADE*    CLEAR     48  36  61 NW8       29.88R

$$

MDZ012-015-019>023-280300-
MARYLAND EASTERN SHORE

CITY           SKY/WX    TMP DP  RH WIND       PRES   REMARKS
OCEAN CITY     PTCLDY    52  34  50 NW7       29.79S
SALISBURY      PTCLDY    51  34  52 W7        29.80S
BAY BRIDGE AP*   N/A    N/A N/A N/A NW15      29.84R
CAMBRIDGE*     PTCLDY    55  36  47 NW8G16    29.82R
EASTON*        PTCLDY    54  39  57 N14       29.86R

$$

MDZ017>025-280300-
SOUTHERN MARYLAND

CITY           SKY/WX    TMP DP  RH WIND       PRES   REMARKS
PATUXENT RIVER MOCLDY    54  36  50 NW15G24   29.84R
ST INIGOES     MOCLDY    55  35  47 NW8G16    29.84R
LEONARDTOWN*   MOCLDY    54  32  43 NW7G17    29.86S

$$

MDZ003>005-280300-
NORTH CENTRAL MARYLAND

CITY           SKY/WX    TMP DP  RH WIND       PRES   REMARKS
FREDERICK*     CLOUDY    52  36  54 NW6       29.92R
HAGERSTOWN APT PTCLDY    46  37  71 NW9       29.89R
WESTMINSTER*   PTCLDY    48  39  71 W8        29.86R

$$

MDZ501>502-280300-
WESTERN MARYLAND

CITY           SKY/WX    TMP DP  RH WIND       PRES   REMARKS
OAKLAND*       CLOUDY    34 N/A N/A NW10G17   29.92S WCI  26
CUMBERLAND*    CLOUDY    46  34  61 NW8       30.00R

$$

VAZ025>031-280300-
SHENANDOAH VALLEY

CITY           SKY/WX    TMP DP  RH WIND       PRES   REMARKS
WINCHESTER*    PTCLDY    46  30  53 NW15G25   29.91S
FRONT ROYAL*   MOCLDY    46  34  61 NW7       29.92R
LURAY*         CLOUDY    50  37  62 NW6       29.93R
NEW MARKET*    CLOUDY    48  33  56 CALM      29.94R
STAUNTON*      PTCLDY    49  31  51 NW8       29.94R
WAYNESBORO*    CLOUDY    48  32  52 NW7       29.91R

$$

WVZ021-048>050-054>055-280300-
EASTERN WEST VIRGINIA PANHANDLE

CITY           SKY/WX    TMP DP  RH WIND       PRES   REMARKS
MARTINSBURG    PTCLDY    48  34  58 NW12      29.92R
PETERSBURG*    CLOUDY    48  31  53 NW14G22   29.97R

$$

VAZ036>039-050-280300-
CENTRAL FOOTHILLS

CITY           SKY/WX    TMP DP  RH WIND       PRES   REMARKS
CHARLOTTESVILL MOCLDY    52  33  48 N5        29.91R
CULPEPER*      PTCLDY    52  37  58 W7        29.91R
ORANGE*        MOCLDY    54  34  47 W8        29.92R
GORDONSVILLE*  FAIR      51  33  49 N7        29.91R
WARRENTON*     FAIR      50  38  64 NW9       29.90R

$$

VAZ055>057-280300-
NORTH AND CENTRAL PIEDMONT

CITY           SKY/WX    TMP DP  RH WIND       PRES   REMARKS
FREDERICKSBRG* PTCLDY    54  36  51 NW9G20    29.89R
STAFFORD*      PTCLDY    51  33  50 NW16      29.93R

$$

NCZ024-NYZ072-PAZ021-071-VAZ022-071-280300-
OTHER REGIONAL OBSERVATIONS

CITY           SKY/WX    TMP DP  RH WIND       PRES   REMARKS
NEW YORK CITY  CLOUDY    55  32  41 NW9G17    29.74R
PHILADELPHIA   PTCLDY    55  31  39 NW14      29.78R
PITTSBURGH     CLOUDY    43  34  70 NW13      30.01R
ROANOKE        PTCLDY    50  32  50 N8        29.94R
RICHMOND       MOCLDY    55  33  43 NW6       29.87R
RALEIGH        PTCLDY    56  31  38 VRB3      29.91R

$$

ANZ530>537-280300-
MARINE OBSERVATIONS

STATION/POSITION TIME  TEMP    WIND        PRES
                       AIR SEA DIR/SP/G
                 (UTC) (F)     (DEG/KT/KT) (MB)
THOMAS PT LIGHT  0200   53 53  320/ 16/ 18 1010.8R
BALT KEY BRIDGE  0100   54     290/ 16/ 18 1009.8R
COVE POINT       0100   55     330/  9/ 12 1010.6R
LEWISETTA        0100   56 58              1010.2R
SOLOMONS ISLAND  0106      56                N/A
PINEY POINT      0100          340/ 17/ 18   N/A

$$




USA.gov is the U.S. government's official web portal to all federal, state and local government web resources and services.